Find Starlink 30388

NORAD ID: 57784 Int'l Des: 2023-134 Owner: SPXS Country: US Constellation: starlink operational
LEOCIRCULAR

現在のビュー

3D地球を読み込み中...

About Starlink 30388

Starlink 30388 (NORAD 57784) is a starlink constellation satellite (v2 mini) launched Sep 4, 2023 by SPXS of US. It operates in LEO, CIRCULAR orbit with a mass of 730.00 kg.

Starlink 30388について

説明を読み込み中...

次回通過

Passes for default location (London). Set your location on the main map for personalized predictions.

高度履歴

Loading altitude history...

軌道要素

1 57784U 23134P 26175.10242951 .00001117 00000-0 50157-4 0 9991
2 57784 43.0073 313.3211 0002346 265.6793 94.3790 15.27570526155785
Epoch: Jun 24, 2026 • Age: 31 hours

現在のステータス

高度 494.5 km
速度 7.62 km/s
衛星直下点 -42.22°S, 146.74°E
打ち上げ日 Sep 4, 2023
運用期間 2.8 years
タイプ internet

技術仕様

分類 Payload
質量 730.00 kg
乾燥質量 700.00 kg
総質量 730.00 kg
長さ 0.30 m
直径 4.10 m
スパン 29.00 m
形状 Box + pan
製造者 SPXS
バスタイプ Starlink V2M
フェーズステータス In Orbit
所有者/国 SPXS/US

Most Searched